TimeAST,TemperatureF,Dew PointF,Humidity,Sea Level PressureIn,VisibilityMPH,Wind Direction,Wind SpeedMPH,Gust SpeedMPH,PrecipitationIn,Events,Conditions,WindDirDegrees,DateUTC
12:56 AM,75.9,68.0,76,30.03,10.0,Calm,Calm,-,N/A,,Scattered Clouds,0,2013-02-17 04:56:00
1:56 AM,75.9,68.0,76,30.02,10.0,Calm,Calm,-,N/A,,Partly Cloudy,0,2013-02-17 05:56:00
2:56 AM,73.9,68.0,82,30.00,10.0,East,4.6,-,N/A,,Partly Cloudy,80,2013-02-17 06:56:00
3:56 AM,75.0,68.0,79,30.00,10.0,Calm,Calm,-,N/A,,Scattered Clouds,0,2013-02-17 07:56:00
4:56 AM,73.9,68.0,82,30.00,10.0,Calm,Calm,-,N/A,,Scattered Clouds,0,2013-02-17 08:56:00
5:56 AM,73.0,68.0,84,30.01,10.0,Calm,Calm,-,N/A,,Partly Cloudy,0,2013-02-17 09:56:00
6:56 AM,73.0,66.9,81,30.03,10.0,Calm,Calm,-,N/A,,Partly Cloudy,0,2013-02-17 10:56:00
7:56 AM,75.0,68.0,79,30.06,10.0,Calm,Calm,-,N/A,,Partly Cloudy,0,2013-02-17 11:56:00
8:56 AM,78.1,69.1,74,30.08,10.0,Calm,Calm,-,N/A,,Scattered Clouds,0,2013-02-17 12:56:00
9:56 AM,79.0,71.1,77,30.09,10.0,East,9.2,-,N/A,,Scattered Clouds,100,2013-02-17 13:56:00
10:56 AM,80.1,69.1,69,30.09,10.0,ESE,8.1,-,N/A,,Scattered Clouds,120,2013-02-17 14:56:00
11:56 AM,84.0,64.9,53,30.06,10.0,East,10.4,-,N/A,,Scattered Clouds,90,2013-02-17 15:56:00
12:56 PM,84.0,71.1,65,30.04,10.0,ENE,18.4,-,N/A,,Scattered Clouds,70,2013-02-17 16:56:00
1:56 PM,84.0,70.0,63,30.01,10.0,NE,16.1,25.3,N/A,,Scattered Clouds,50,2013-02-17 17:56:00
2:56 PM,82.9,70.0,65,29.99,10.0,ENE,17.3,-,N/A,,Scattered Clouds,70,2013-02-17 18:56:00
3:56 PM,82.0,70.0,67,29.99,10.0,East,19.6,23.0,0.00,Rain,Light Rain,80,2013-02-17 19:56:00
4:56 PM,80.1,69.1,69,29.99,10.0,East,9.2,-,0.00,,Mostly Cloudy,100,2013-02-17 20:56:00
5:56 PM,79.0,69.1,72,30.00,10.0,East,9.2,-,0.00,,Mostly Cloudy,80,2013-02-17 21:56:00
6:03 PM,78.8,69.8,74,30.00,10.0,East,9.2,-,N/A,,Partly Cloudy,80,2013-02-17 22:03:00
6:56 PM,77.0,68.0,74,30.01,10.0,East,9.2,-,N/A,,Partly Cloudy,90,2013-02-17 22:56:00
7:56 PM,78.1,66.0,66,30.03,10.0,East,6.9,-,N/A,,Partly Cloudy,100,2013-02-17 23:56:00
8:56 PM,77.0,66.9,71,30.05,10.0,ESE,5.8,-,N/A,,Clear,110,2013-02-18 00:56:00
9:56 PM,75.9,66.9,74,30.06,10.0,ESE,4.6,-,N/A,,Partly Cloudy,110,2013-02-18 01:56:00
10:56 PM,75.0,66.0,73,30.06,10.0,ESE,3.5,-,N/A,,Partly Cloudy,110,2013-02-18 02:56:00
11:56 PM,75.0,66.0,73,30.06,10.0,Calm,Calm,-,N/A,,Partly Cloudy,0,2013-02-18 03:56:00